This is the latest recevied weather packets stored in our database for station/object KC5AV. If no packets are shown the sender has not sent any weather packets the latest 10 day(s).
| Time | Temp. | Humidity | Pressure | Rain* | Wind** | Luminosity | Snow |
|---|---|---|---|---|---|---|---|
| 1787415029 | 38.33° C | 41% | 1018.6 hPa | 0 mm | - | 683 W/m² | - |
| 1787414725 | 37.78° C | 41% | 1018.6 hPa | 0 mm | - | 702 W/m² | - |
| 1787414420 | 37.78° C | 42% | 1018.8 hPa | 0 mm | - | 556 W/m² | - |
| 1787414118 | 37.78° C | 41% | 1018.6 hPa | 0 mm | - | 715 W/m² | - |
| 1787413813 | 37.22° C | 43% | 1018.6 hPa | 0 mm | - | 694 W/m² | - |
| 1787413509 | 37.22° C | 43% | 1018.7 hPa | 0 mm | - | 668 W/m² | - |
| 1787413203 | 37.78° C | 43% | 1018.5 hPa | 0 mm | - | 607 W/m² | - |
| 1787412900 | 37.22° C | 45% | 1018.7 hPa | 0 mm | - | 607 W/m² | - |
| 1787412600 | 36.67° C | 46% | 1018.3 hPa | 0 mm | - | 617 W/m² | - |
| 1787412295 | 36.11° C | 46% | 1018.6 hPa | 0 mm | - | 604 W/m² | - |
| 1787411991 | 36.11° C | 48% | 1018.6 hPa | 0 mm | - | 589 W/m² | - |
| 1787411688 | 35.56° C | 49% | 1018.4 hPa | 0 mm | - | 572 W/m² | - |
| 1787411383 | 35.56° C | 49% | 1018.6 hPa | 0 mm | - | 552 W/m² | - |
| 1787411079 | 35.56° C | 50% | 1018.6 hPa | 0 mm | - | 539 W/m² | - |
| 1787410774 | 35° C | 51% | 1018.5 hPa | 0 mm | - | 488 W/m² | - |
| 1787410470 | 33.89° C | 53% | 1018.5 hPa | 0 mm | - | 475 W/m² | - |
| 1787410165 | 33.33° C | 55% | 1018.4 hPa | 0 mm | - | 457 W/m² | - |
| 1787409862 | 33.33° C | 54% | 1018.5 hPa | 0 mm | - | 448 W/m² | - |
| 1787409557 | 33.33° C | 55% | 1018.4 hPa | 0 mm | - | 424 W/m² | - |
| 1787409253 | 32.78° C | 58% | 1018.7 hPa | 0 mm | - | 402 W/m² | - |
| 1787408949 | 32.78° C | 58% | 1018.3 hPa | 0 mm | - | 393 W/m² | - |
| 1787408644 | 32.22° C | 58% | 1018.3 hPa | 0 mm | - | 381 W/m² | - |
| 1787408338 | 31.67° C | 59% | 1018.2 hPa | 0 mm | - | 365 W/m² | - |
| 1787408034 | 31.67° C | 60% | 1018.3 hPa | 0 mm | - | 340 W/m² | - |
| 1787407730 | 31.67° C | 61% | 1018.2 hPa | 0 mm | - | 318 W/m² | - |
* Rain latest hour (hover to see other rain measurements)
** Current wind speed in m/s (hover to see current wind gust speed)